ACN5369 SNTS-SBRF

Flight info

Callsign ACN5369
Flight time 1h 7m
Altitude 5500
Route 0711S03655W/N0179F070 IFR DCT ANDOX
Aircraft C208/L-SDFGR/C

Departure

Time 2026-04-14 13:45
Airport Aeroporto Brigadeiro Firmino Ayres (SNTS)

Arrival

Time 2026-04-14 14:52
Airport Recife/Guararapes - Gilberto Freyre International Airport (SBRF)
Time Latitude Longitude Altitude Speed Heading
2026-04-14 13:39 -7.03731 -37.25147 869 ft 0 kts 14°
2026-04-14 13:43 -7.03727 -37.25147 869 ft 3 kts 15°
2026-04-14 13:43 -7.03747 -37.25148 874 ft 7 kts 205°
2026-04-14 13:43 -7.03799 -37.25202 873 ft 13 kts 198°
2026-04-14 13:43 -7.03881 -37.25216 875 ft 11 kts 139°
2026-04-14 13:44 -7.03884 -37.25209 875 ft 0 kts 103°
2026-04-14 13:44 -7.03889 -37.25192 877 ft 16 kts 103°
2026-04-14 13:44 -7.03949 -37.24931 891 ft 58 kts 103°
2026-04-14 13:44 -7.04058 -37.24455 981 ft 76 kts 108°
2026-04-14 13:45 -7.04227 -37.23906 1179 ft 87 kts 116°
2026-04-14 13:45 -7.04441 -37.23292 1551 ft 94 kts 116°
2026-04-14 13:45 -7.04738 -37.22697 1843 ft 96 kts 117°
2026-04-14 13:45 -7.05021 -37.22098 2099 ft 93 kts 118°
2026-04-14 13:46 -7.05288 -37.21518 2345 ft 91 kts 116°
2026-04-14 13:46 -7.05548 -37.20927 2574 ft 97 kts 118°
2026-04-14 13:46 -7.05823 -37.20315 2777 ft 110 kts 116°
2026-04-14 13:46 -7.06155 -37.19559 3018 ft 125 kts 116°
2026-04-14 13:47 -7.06528 -37.18725 3247 ft 135 kts 116°
2026-04-14 13:47 -7.06921 -37.17843 3454 ft 140 kts 116°
2026-04-14 13:47 -7.07307 -37.16941 3672 ft 141 kts 115°
2026-04-14 13:47 -7.07693 -37.16052 3854 ft 140 kts 116°
2026-04-14 13:48 -7.08083 -37.15162 4054 ft 139 kts 116°
2026-04-14 13:48 -7.08477 -37.14265 4254 ft 138 kts 115°
2026-04-14 13:48 -7.08853 -37.13389 4448 ft 138 kts 116°
2026-04-14 13:48 -7.09245 -37.12501 4644 ft 139 kts 116°
2026-04-14 13:49 -7.09641 -37.11604 4833 ft 142 kts 116°
2026-04-14 13:49 -7.10038 -37.10695 5035 ft 143 kts 116°
2026-04-14 13:49 -7.10437 -37.09778 5217 ft 142 kts 116°
2026-04-14 13:49 -7.10834 -37.08876 5413 ft 139 kts 116°
2026-04-14 13:50 -7.11228 -37.07976 5497 ft 144 kts 116°
2026-04-14 13:50 -7.11647 -37.07027 5499 ft 152 kts 116°
2026-04-14 13:50 -7.12080 -37.06037 5504 ft 158 kts 115°
2026-04-14 13:50 -7.12527 -37.05006 5508 ft 163 kts 115°
2026-04-14 13:51 -7.12985 -37.03959 5507 ft 164 kts 115°
2026-04-14 13:51 -7.13502 -37.02936 5511 ft 164 kts 124°
2026-04-14 13:51 -7.14118 -37.01976 5506 ft 162 kts 123°
2026-04-14 13:51 -7.14714 -37.01023 5504 ft 161 kts 123°
2026-04-14 13:52 -7.15313 -37.00072 5512 ft 160 kts 123°
2026-04-14 13:52 -7.15908 -36.99125 5509 ft 160 kts 122°
2026-04-14 13:52 -7.16531 -36.98201 5509 ft 159 kts 125°
2026-04-14 13:52 -7.17188 -36.97308 5512 ft 159 kts 128°
2026-04-14 13:53 -7.17862 -36.96446 5649 ft 153 kts 129°
2026-04-14 13:53 -7.18459 -36.95588 5830 ft 147 kts 123°
2026-04-14 13:53 -7.18969 -36.94714 6019 ft 144 kts 118°
2026-04-14 13:53 -7.19369 -36.93807 6204 ft 140 kts 111°
2026-04-14 13:54 -7.19678 -36.92888 6397 ft 138 kts 109°
2026-04-14 13:54 -7.19991 -36.91972 6579 ft 139 kts 111°
2026-04-14 13:54 -7.20310 -36.91052 6763 ft 139 kts 111°
2026-04-14 13:54 -7.20627 -36.90135 6938 ft 137 kts 111°
2026-04-14 13:55 -7.20952 -36.89211 7003 ft 146 kts 110°
2026-04-14 13:55 -7.21299 -36.88222 7012 ft 153 kts 110°
2026-04-14 13:55 -7.21659 -36.87189 7016 ft 159 kts 111°
2026-04-14 13:55 -7.22029 -36.86128 7018 ft 162 kts 111°
2026-04-14 13:56 -7.22406 -36.85050 7014 ft 163 kts 112°
2026-04-14 13:56 -7.22908 -36.84033 7014 ft 163 kts 121°
2026-04-14 13:56 -7.23496 -36.83051 7015 ft 164 kts 122°
2026-04-14 13:56 -7.24066 -36.82054 7014 ft 165 kts 116°
2026-04-14 13:57 -7.24437 -36.80961 7009 ft 165 kts 108°
2026-04-14 13:57 -7.24661 -36.80231 7004 ft 164 kts 110°
2026-04-14 13:57 -7.24954 -36.79116 7007 ft 166 kts 102°
2026-04-14 13:57 -7.25122 -36.77967 7010 ft 166 kts 101°
2026-04-14 13:58 -7.25341 -36.76445 7005 ft 166 kts 101°
2026-04-14 13:58 -7.25507 -36.75301 7008 ft 165 kts 101°
2026-04-14 13:58 -7.25623 -36.74527 7003 ft 165 kts 101°
2026-04-14 13:58 -7.25989 -36.73451 7008 ft 163 kts 118°
2026-04-14 13:59 -7.26534 -36.72448 7006 ft 163 kts 122°
2026-04-14 13:59 -7.27145 -36.71486 7004 ft 163 kts 124°
2026-04-14 13:59 -7.27784 -36.70546 7006 ft 163 kts 125°
2026-04-14 13:59 -7.28439 -36.69617 7005 ft 162 kts 126°
2026-04-14 14:00 -7.29094 -36.68692 7006 ft 162 kts 126°
2026-04-14 14:00 -7.29753 -36.67767 7000 ft 163 kts 126°
2026-04-14 14:00 -7.30415 -36.66839 7004 ft 164 kts 126°
2026-04-14 14:00 -7.31073 -36.65906 6999 ft 164 kts 126°
2026-04-14 14:01 -7.31723 -36.64986 7000 ft 164 kts 125°
2026-04-14 14:01 -7.32170 -36.63961 7146 ft 156 kts 109°
2026-04-14 14:01 -7.32490 -36.62945 7328 ft 149 kts 110°
2026-04-14 14:01 -7.32812 -36.61972 7510 ft 144 kts 110°
2026-04-14 14:02 -7.33123 -36.61028 7690 ft 140 kts 110°
2026-04-14 14:02 -7.33430 -36.60106 7874 ft 138 kts 110°
2026-04-14 14:02 -7.33731 -36.59198 8061 ft 136 kts 110°
2026-04-14 14:02 -7.34031 -36.58295 8247 ft 136 kts 110°
2026-04-14 14:03 -7.34333 -36.57389 8440 ft 137 kts 110°
2026-04-14 14:03 -7.34635 -36.56484 8631 ft 135 kts 110°
2026-04-14 14:03 -7.34930 -36.55591 8827 ft 133 kts 110°
2026-04-14 14:03 -7.35225 -36.54706 8994 ft 134 kts 110°
2026-04-14 14:04 -7.35512 -36.53770 9005 ft 145 kts 102°
2026-04-14 14:04 -7.35606 -36.52734 9017 ft 152 kts 94°
2026-04-14 14:04 -7.35655 -36.51649 9016 ft 157 kts 96°
2026-04-14 14:04 -7.35718 -36.50540 9015 ft 160 kts 95°
2026-04-14 14:05 -7.35749 -36.49408 9013 ft 164 kts 94°
2026-04-14 14:05 -7.35777 -36.48256 9013 ft 165 kts 94°
2026-04-14 14:05 -7.35806 -36.47102 9014 ft 165 kts 94°
2026-04-14 14:05 -7.35833 -36.45945 9015 ft 165 kts 94°
2026-04-14 14:06 -7.35861 -36.44786 9016 ft 166 kts 94°
2026-04-14 14:06 -7.35887 -36.43629 9014 ft 166 kts 94°
2026-04-14 14:06 -7.35940 -36.42470 9013 ft 165 kts 102°
2026-04-14 14:06 -7.36309 -36.41383 9014 ft 164 kts 113°
2026-04-14 14:07 -7.36721 -36.40314 9013 ft 164 kts 110°
2026-04-14 14:07 -7.36942 -36.39185 9012 ft 165 kts 99°
2026-04-14 14:07 -7.37051 -36.38030 9013 ft 166 kts 97°
2026-04-14 14:07 -7.37143 -36.36872 9014 ft 166 kts 97°
2026-04-14 14:08 -7.37234 -36.35717 9017 ft 165 kts 97°
2026-04-14 14:08 -7.37311 -36.34562 9013 ft 165 kts 96°
2026-04-14 14:08 -7.37381 -36.33409 9014 ft 165 kts 96°
2026-04-14 14:08 -7.37452 -36.32251 9013 ft 166 kts 96°
2026-04-14 14:09 -7.37528 -36.31085 9013 ft 168 kts 96°
2026-04-14 14:09 -7.37607 -36.29914 9011 ft 167 kts 96°
2026-04-14 14:09 -7.37712 -36.28768 9014 ft 166 kts 100°
2026-04-14 14:09 -7.37937 -36.27617 9011 ft 165 kts 106°
2026-04-14 14:10 -7.38289 -36.26519 9009 ft 165 kts 111°
2026-04-14 14:10 -7.38677 -36.25433 9009 ft 165 kts 111°
2026-04-14 14:10 -7.39063 -36.24346 9008 ft 165 kts 110°
2026-04-14 14:10 -7.39418 -36.23248 9009 ft 165 kts 109°
2026-04-14 14:11 -7.39766 -36.22148 9013 ft 165 kts 109°
2026-04-14 14:11 -7.40108 -36.21066 9014 ft 164 kts 110°
2026-04-14 14:11 -7.40545 -36.20002 9017 ft 165 kts 113°
2026-04-14 14:11 -7.40964 -36.18930 9018 ft 164 kts 112°
2026-04-14 14:12 -7.41373 -36.17856 9020 ft 164 kts 112°
2026-04-14 14:12 -7.41784 -36.16782 9020 ft 164 kts 112°
2026-04-14 14:12 -7.42196 -36.15708 9021 ft 164 kts 112°
2026-04-14 14:12 -7.42613 -36.14619 9026 ft 164 kts 111°
2026-04-14 14:13 -7.43024 -36.13546 9029 ft 164 kts 112°
2026-04-14 14:13 -7.43435 -36.12476 9029 ft 164 kts 112°
2026-04-14 14:13 -7.43845 -36.11407 9031 ft 163 kts 112°
2026-04-14 14:13 -7.44249 -36.10355 9031 ft 163 kts 112°
2026-04-14 14:14 -7.44658 -36.09289 9032 ft 164 kts 111°
2026-04-14 14:14 -7.45069 -36.08217 9031 ft 164 kts 112°
2026-04-14 14:14 -7.45480 -36.07145 9030 ft 164 kts 112°
2026-04-14 14:14 -7.45890 -36.06078 9034 ft 163 kts 112°
2026-04-14 14:15 -7.46299 -36.05011 9032 ft 163 kts 112°
2026-04-14 14:15 -7.46711 -36.03939 9043 ft 166 kts 112°
2026-04-14 14:15 -7.47126 -36.02851 9033 ft 167 kts 112°
2026-04-14 14:15 -7.47550 -36.01745 9035 ft 172 kts 112°
2026-04-14 14:16 -7.47986 -36.00612 9037 ft 175 kts 112°
2026-04-14 14:16 -7.48424 -35.99461 9034 ft 175 kts 112°
2026-04-14 14:16 -7.48862 -35.98322 9034 ft 174 kts 112°
2026-04-14 14:17 -7.49714 -35.96097 9020 ft 168 kts 112°
2026-04-14 14:17 -7.50134 -35.95002 9019 ft 167 kts 112°
2026-04-14 14:17 -7.50552 -35.93910 9018 ft 167 kts 112°
2026-04-14 14:17 -7.50966 -35.92824 9018 ft 165 kts 112°
2026-04-14 14:18 -7.51381 -35.91748 9021 ft 165 kts 112°
2026-04-14 14:18 -7.51795 -35.90670 9019 ft 165 kts 112°
2026-04-14 14:18 -7.52206 -35.89595 9017 ft 164 kts 112°
2026-04-14 14:18 -7.52617 -35.88520 9013 ft 165 kts 112°
2026-04-14 14:19 -7.53029 -35.87443 9013 ft 164 kts 112°
2026-04-14 14:19 -7.53441 -35.86367 9010 ft 164 kts 112°
2026-04-14 14:19 -7.53851 -35.85297 9011 ft 164 kts 112°
2026-04-14 14:19 -7.54263 -35.84224 9010 ft 164 kts 112°
2026-04-14 14:20 -7.54674 -35.83147 9011 ft 165 kts 112°
2026-04-14 14:20 -7.55091 -35.82059 9012 ft 167 kts 112°
2026-04-14 14:20 -7.55510 -35.80962 9005 ft 168 kts 112°
2026-04-14 14:20 -7.55931 -35.79864 9006 ft 168 kts 112°
2026-04-14 14:21 -7.56352 -35.78765 9003 ft 168 kts 112°
2026-04-14 14:21 -7.56772 -35.77667 9005 ft 168 kts 112°
2026-04-14 14:21 -7.57193 -35.76565 9000 ft 169 kts 112°
2026-04-14 14:21 -7.57612 -35.75472 8999 ft 170 kts 112°
2026-04-14 14:22 -7.58040 -35.74350 8995 ft 169 kts 112°
2026-04-14 14:22 -7.58457 -35.73261 8993 ft 168 kts 112°
2026-04-14 14:22 -7.58884 -35.72146 8990 ft 168 kts 112°
2026-04-14 14:22 -7.59299 -35.71057 8990 ft 169 kts 112°
2026-04-14 14:23 -7.59721 -35.69954 8991 ft 169 kts 112°
2026-04-14 14:23 -7.60144 -35.68852 8986 ft 169 kts 112°
2026-04-14 14:23 -7.60566 -35.67749 8993 ft 168 kts 112°
2026-04-14 14:23 -7.60985 -35.66649 8993 ft 169 kts 112°
2026-04-14 14:24 -7.61408 -35.65545 8992 ft 169 kts 112°
2026-04-14 14:24 -7.61830 -35.64441 8993 ft 169 kts 112°
2026-04-14 14:24 -7.62250 -35.63338 8991 ft 169 kts 112°
2026-04-14 14:24 -7.62671 -35.62236 8988 ft 169 kts 112°
2026-04-14 14:25 -7.63094 -35.61133 8984 ft 169 kts 111°
2026-04-14 14:25 -7.63517 -35.60033 8988 ft 168 kts 112°
2026-04-14 14:25 -7.63932 -35.58939 8987 ft 168 kts 112°
2026-04-14 14:25 -7.64352 -35.57835 8989 ft 169 kts 112°
2026-04-14 14:26 -7.64770 -35.56734 8991 ft 168 kts 112°
2026-04-14 14:26 -7.65194 -35.55635 8990 ft 168 kts 112°
2026-04-14 14:26 -7.65610 -35.54543 8989 ft 167 kts 112°
2026-04-14 14:26 -7.66026 -35.53451 8989 ft 167 kts 112°
2026-04-14 14:27 -7.66444 -35.52353 8985 ft 168 kts 112°
2026-04-14 14:27 -7.66867 -35.51257 8992 ft 167 kts 112°
2026-04-14 14:27 -7.67281 -35.50171 8987 ft 166 kts 112°
2026-04-14 14:27 -7.67695 -35.49082 8987 ft 167 kts 112°
2026-04-14 14:28 -7.68114 -35.47984 8986 ft 168 kts 112°
2026-04-14 14:28 -7.68537 -35.46884 8984 ft 168 kts 112°
2026-04-14 14:28 -7.68953 -35.45786 8990 ft 168 kts 112°
2026-04-14 14:28 -7.69371 -35.44691 8990 ft 167 kts 112°
2026-04-14 14:29 -7.69791 -35.43594 8989 ft 168 kts 112°
2026-04-14 14:29 -7.70210 -35.42497 8989 ft 168 kts 112°
2026-04-14 14:29 -7.70628 -35.41393 8985 ft 169 kts 112°
2026-04-14 14:29 -7.71049 -35.40291 8987 ft 168 kts 112°
2026-04-14 14:30 -7.71471 -35.39187 8985 ft 169 kts 112°
2026-04-14 14:30 -7.71894 -35.38083 8985 ft 168 kts 112°
2026-04-14 14:30 -7.72312 -35.36979 8981 ft 168 kts 112°
2026-04-14 14:30 -7.72730 -35.35878 8985 ft 168 kts 112°
2026-04-14 14:31 -7.73154 -35.34775 8986 ft 169 kts 112°
2026-04-14 14:31 -7.73577 -35.33668 8980 ft 169 kts 112°
2026-04-14 14:31 -7.73995 -35.32576 8984 ft 168 kts 112°
2026-04-14 14:31 -7.74420 -35.31460 8986 ft 169 kts 112°
2026-04-14 14:32 -7.74838 -35.30357 8982 ft 168 kts 112°
2026-04-14 14:32 -7.75253 -35.29268 8982 ft 169 kts 112°
2026-04-14 14:32 -7.75676 -35.28159 8987 ft 170 kts 112°
2026-04-14 14:32 -7.76101 -35.27045 8987 ft 171 kts 112°
2026-04-14 14:33 -7.76526 -35.25930 8985 ft 170 kts 112°
2026-04-14 14:33 -7.76951 -35.24815 8987 ft 170 kts 112°
2026-04-14 14:33 -7.77374 -35.23701 8983 ft 171 kts 112°
2026-04-14 14:33 -7.77799 -35.22583 8981 ft 171 kts 112°
2026-04-14 14:34 -7.78649 -35.20354 8981 ft 170 kts 112°
2026-04-14 14:34 -7.79073 -35.19245 8980 ft 170 kts 112°
2026-04-14 14:34 -7.79497 -35.18129 8978 ft 171 kts 112°
2026-04-14 14:35 -7.79923 -35.17010 8976 ft 171 kts 112°
2026-04-14 14:35 -7.80347 -35.15895 8978 ft 170 kts 112°
2026-04-14 14:35 -7.80771 -35.14783 8975 ft 170 kts 112°
2026-04-14 14:35 -7.81195 -35.13668 8974 ft 170 kts 112°
2026-04-14 14:36 -7.81619 -35.12552 8975 ft 170 kts 112°
2026-04-14 14:36 -7.82044 -35.11442 8975 ft 170 kts 112°
2026-04-14 14:36 -7.82466 -35.10331 8975 ft 170 kts 112°
2026-04-14 14:36 -7.82890 -35.09217 8976 ft 170 kts 112°
2026-04-14 14:37 -7.83314 -35.08100 8968 ft 170 kts 112°
2026-04-14 14:37 -7.83738 -35.06986 8970 ft 170 kts 112°
2026-04-14 14:37 -7.84169 -35.05856 8868 ft 176 kts 112°
2026-04-14 14:37 -7.84574 -35.04790 8736 ft 180 kts 112°
2026-04-14 14:38 -7.84825 -35.03556 8577 ft 184 kts 88°
2026-04-14 14:38 -7.84317 -35.02362 8316 ft 193 kts 52°
2026-04-14 14:38 -7.83150 -35.01662 8059 ft 203 kts 17°
2026-04-14 14:38 -7.81737 -35.01746 7805 ft 210 kts 342°
2026-04-14 14:39 -7.80572 -35.02614 7555 ft 211 kts 308°
2026-04-14 14:39 -7.79920 -35.03927 7314 ft 209 kts 291°
2026-04-14 14:39 -7.79418 -35.05276 7080 ft 203 kts 288°
2026-04-14 14:39 -7.78972 -35.06615 6842 ft 200 kts 288°
2026-04-14 14:40 -7.78536 -35.07940 6605 ft 199 kts 288°
2026-04-14 14:40 -7.78102 -35.09260 6370 ft 198 kts 288°
2026-04-14 14:40 -7.77669 -35.10575 6131 ft 197 kts 287°
2026-04-14 14:40 -7.77303 -35.11899 5875 ft 195 kts 273°
2026-04-14 14:41 -7.77592 -35.13190 5611 ft 188 kts 234°
2026-04-14 14:41 -7.78549 -35.13995 5350 ft 177 kts 195°
2026-04-14 14:41 -7.79719 -35.14012 5136 ft 168 kts 162°
2026-04-14 14:41 -7.80753 -35.13501 4941 ft 166 kts 140°
2026-04-14 14:42 -7.81445 -35.12591 4755 ft 165 kts 116°
2026-04-14 14:42 -7.81827 -35.11503 4586 ft 164 kts 110°
2026-04-14 14:42 -7.82192 -35.10425 4412 ft 162 kts 112°
2026-04-14 14:42 -7.82599 -35.09360 4239 ft 163 kts 114°
2026-04-14 14:43 -7.83026 -35.08304 4071 ft 163 kts 114°
2026-04-14 14:43 -7.83456 -35.07250 3899 ft 162 kts 114°
2026-04-14 14:43 -7.83886 -35.06196 3729 ft 163 kts 114°
2026-04-14 14:43 -7.84317 -35.05144 3563 ft 161 kts 114°
2026-04-14 14:44 -7.84747 -35.04098 3395 ft 162 kts 114°
2026-04-14 14:44 -7.85178 -35.03050 3241 ft 163 kts 114°
2026-04-14 14:44 -7.85465 -35.02349 3141 ft 164 kts 114°
2026-04-14 14:44 -7.86336 -35.01136 2953 ft 166 kts 143°
2026-04-14 14:45 -7.87389 -35.00669 2809 ft 167 kts 161°
2026-04-14 14:45 -7.88494 -35.00316 2662 ft 165 kts 160°
2026-04-14 14:45 -7.89228 -35.00072 2573 ft 164 kts 161°
2026-04-14 14:45 -7.90319 -34.99710 2423 ft 166 kts 160°
2026-04-14 14:46 -7.91424 -34.99344 2282 ft 168 kts 161°
2026-04-14 14:46 -7.92536 -34.98978 2135 ft 168 kts 161°
2026-04-14 14:46 -7.93640 -34.98611 1996 ft 166 kts 161°
2026-04-14 14:46 -7.94724 -34.98252 1835 ft 166 kts 161°
2026-04-14 14:47 -7.95835 -34.97889 1779 ft 163 kts 161°
2026-04-14 14:47 -7.96882 -34.97544 1780 ft 158 kts 162°
2026-04-14 14:47 -7.97927 -34.97206 1772 ft 157 kts 162°
2026-04-14 14:47 -7.98959 -34.96868 1765 ft 154 kts 162°
2026-04-14 14:48 -7.99971 -34.96535 1767 ft 152 kts 161°
2026-04-14 14:48 -8.00981 -34.96203 1770 ft 153 kts 161°
2026-04-14 14:48 -8.01988 -34.95869 1775 ft 154 kts 162°
2026-04-14 14:48 -8.03028 -34.95524 1708 ft 161 kts 162°
2026-04-14 14:49 -8.04069 -34.95175 1510 ft 143 kts 161°
2026-04-14 14:49 -8.04925 -34.94873 1333 ft 127 kts 161°
2026-04-14 14:49 -8.05826 -34.94581 1172 ft 143 kts 161°
2026-04-14 14:49 -8.06793 -34.94254 984 ft 143 kts 160°
2026-04-14 14:50 -8.07642 -34.93972 815 ft 116 kts 160°
2026-04-14 14:50 -8.08344 -34.93741 683 ft 98 kts 157°
2026-04-14 14:50 -8.08887 -34.93557 577 ft 68 kts 160°
2026-04-14 14:50 -8.09286 -34.93426 454 ft 56 kts 158°
2026-04-14 14:51 -8.09651 -34.93303 322 ft 55 kts 155°
2026-04-14 14:51 -8.10055 -34.93173 402 ft 67 kts 161°
2026-04-14 14:51 -8.10527 -34.93021 392 ft 74 kts 160°
2026-04-14 14:51 -8.11018 -34.92863 255 ft 71 kts 167°
2026-04-14 14:52 -8.11453 -34.92719 88 ft 65 kts 155°
2026-04-14 14:52 -8.11878 -34.92569 45 ft 62 kts 157°
2026-04-14 14:52 -8.12237 -34.92449 44 ft 46 kts 162°
2026-04-14 14:52 -8.12459 -34.92348 47 ft 21 kts 126°
2026-04-14 14:53 -8.12568 -34.92201 48 ft 30 kts 143°
2026-04-14 14:53 -8.12778 -34.92119 47 ft 36 kts 162°
2026-04-14 14:53 -8.12943 -34.92065 47 ft 8 kts 161°
2026-04-14 14:53 -8.12971 -34.92026 46 ft 11 kts 68°
2026-04-14 14:54 -8.12959 -34.91987 45 ft 0 kts 72°